TimeCST,TemperatureF,Dew PointF,Humidity,Sea Level PressureIn,VisibilityMPH,Wind Direction,Wind SpeedMPH,Gust SpeedMPH,PrecipitationIn,Events,Conditions,WindDirDegrees,DateUTC
12:15 AM,45.9,27.3,48,29.61,10.0,West,20.7,-,N/A,,Clear,270,2014-01-26 06:15:00
12:35 AM,45.5,26.6,48,29.62,10.0,West,19.6,24.2,N/A,,Clear,270,2014-01-26 06:35:00
12:55 AM,44.6,25.9,48,29.62,10.0,West,17.3,-,N/A,,Clear,270,2014-01-26 06:55:00
1:15 AM,45.0,25.3,46,29.62,10.0,West,17.3,-,N/A,,Clear,280,2014-01-26 07:15:00
1:35 AM,46.6,24.8,43,29.62,10.0,West,17.3,24.2,N/A,,Clear,280,2014-01-26 07:35:00
1:55 AM,48.2,24.8,40,29.63,10.0,WNW,16.1,25.3,N/A,,Clear,290,2014-01-26 07:55:00
2:15 AM,46.9,24.8,42,29.63,10.0,WNW,17.3,-,N/A,,Clear,290,2014-01-26 08:15:00
2:35 AM,50.0,26.4,40,29.64,10.0,WNW,20.7,27.6,N/A,,Clear,290,2014-01-26 08:35:00
2:55 AM,48.6,25.3,40,29.64,10.0,WNW,17.3,21.9,N/A,,Clear,290,2014-01-26 08:55:00
3:15 AM,50.0,27.0,41,29.66,10.0,NW,19.6,26.5,N/A,,Clear,310,2014-01-26 09:15:00
3:35 AM,50.4,27.5,41,29.66,10.0,WNW,16.1,-,N/A,,Clear,300,2014-01-26 09:35:00
3:55 AM,48.9,27.1,43,29.66,10.0,WNW,16.1,20.7,N/A,,Clear,300,2014-01-26 09:55:00
4:15 AM,46.6,27.3,47,29.66,10.0,WNW,15.0,-,N/A,,Clear,300,2014-01-26 10:15:00
4:35 AM,46.2,28.2,50,29.67,10.0,NW,17.3,-,N/A,,Clear,310,2014-01-26 10:35:00
4:55 AM,47.1,30.0,51,29.68,10.0,NW,23.0,27.6,N/A,,Clear,320,2014-01-26 10:55:00
5:15 AM,45.7,30.0,54,29.68,10.0,NW,16.1,25.3,N/A,,Clear,320,2014-01-26 11:15:00
5:35 AM,44.6,30.2,57,29.69,10.0,NNW,13.8,-,N/A,,Clear,330,2014-01-26 11:35:00
5:55 AM,40.5,28.8,63,29.69,10.0,NW,6.9,-,N/A,,Clear,320,2014-01-26 11:55:00
6:15 AM,37.8,28.9,71,29.69,10.0,NNW,10.4,-,N/A,,Clear,330,2014-01-26 12:15:00
6:35 AM,37.0,28.2,70,29.70,10.0,NW,8.1,-,N/A,,Clear,310,2014-01-26 12:35:00
6:55 AM,38.1,29.3,71,29.70,10.0,NW,11.5,-,N/A,,Clear,320,2014-01-26 12:55:00
7:15 AM,39.9,29.8,67,29.71,10.0,NNW,18.4,23.0,N/A,,Clear,330,2014-01-26 13:15:00
7:35 AM,40.1,29.3,65,29.71,10.0,NW,12.7,-,N/A,,Clear,320,2014-01-26 13:35:00
7:55 AM,39.6,28.4,64,29.70,10.0,NW,12.7,-,N/A,,Clear,320,2014-01-26 13:55:00
8:15 AM,36.3,27.3,70,29.70,10.0,WNW,8.1,-,N/A,,Clear,290,2014-01-26 14:15:00
8:35 AM,36.5,27.9,71,29.70,10.0,WNW,9.2,-,N/A,,Clear,300,2014-01-26 14:35:00
8:55 AM,38.3,29.1,70,29.71,10.0,West,9.2,-,N/A,,Clear,270,2014-01-26 14:55:00
9:15 AM,41.0,29.5,64,29.70,10.0,West,10.4,-,N/A,,Clear,280,2014-01-26 15:15:00
9:35 AM,43.0,29.3,59,29.70,10.0,West,15.0,18.4,N/A,,Clear,280,2014-01-26 15:35:00
9:55 AM,45.1,29.7,55,29.70,10.0,West,16.1,20.7,N/A,,Clear,280,2014-01-26 15:55:00
10:15 AM,46.4,29.3,51,29.70,10.0,WNW,16.1,24.2,N/A,,Clear,290,2014-01-26 16:15:00
10:35 AM,47.3,29.3,50,29.70,10.0,WNW,17.3,-,N/A,,Clear,290,2014-01-26 16:35:00
10:55 AM,48.0,29.5,49,29.69,10.0,WNW,18.4,24.2,N/A,,Clear,290,2014-01-26 16:55:00
11:15 AM,50.0,29.7,46,29.69,10.0,WNW,21.9,26.5,N/A,,Clear,300,2014-01-26 17:15:00
11:35 AM,50.0,29.7,46,29.69,10.0,WNW,18.4,23.0,N/A,,Clear,290,2014-01-26 17:35:00
11:55 AM,50.4,29.7,45,29.67,10.0,West,19.6,25.3,N/A,,Clear,280,2014-01-26 17:55:00
12:15 PM,53.8,29.1,39,29.66,10.0,West,20.7,27.6,N/A,,Clear,280,2014-01-26 18:15:00
12:35 PM,55.2,27.3,34,29.65,10.0,WNW,20.7,33.4,N/A,,Clear,290,2014-01-26 18:35:00
12:55 PM,55.0,26.6,33,29.65,10.0,WNW,28.8,34.5,N/A,,Clear,290,2014-01-26 18:55:00
1:15 PM,54.9,25.0,32,29.64,10.0,NW,32.2,41.4,N/A,,Mostly Cloudy,310,2014-01-26 19:15:00
1:35 PM,55.9,24.8,30,29.64,10.0,NW,23.0,35.7,N/A,,Mostly Cloudy,310,2014-01-26 19:35:00
1:55 PM,54.9,25.3,32,29.65,10.0,NW,25.3,34.5,N/A,,Overcast,320,2014-01-26 19:55:00
2:15 PM,54.0,24.8,32,29.65,10.0,NW,24.2,34.5,N/A,,Overcast,320,2014-01-26 20:15:00
2:35 PM,53.6,25.7,34,29.66,10.0,NW,21.9,33.4,N/A,,Overcast,320,2014-01-26 20:35:00
2:55 PM,52.7,25.7,35,29.67,10.0,NNW,21.9,28.8,N/A,,Overcast,330,2014-01-26 20:55:00
3:15 PM,43.3,27.5,54,29.74,5.0,North,43.7,51.8,N/A,,Haze,350,2014-01-26 21:15:00
3:35 PM,38.8,23.9,55,29.78,10.0,North,29.9,50.6,N/A,,Overcast,350,2014-01-26 21:35:00
3:55 PM,36.1,20.3,53,29.82,10.0,North,34.5,49.5,N/A,,Overcast,350,2014-01-26 21:55:00
4:15 PM,34.3,18.5,52,29.87,7.0,NNW,41.4,47.2,N/A,Snow,Light Snow,340,2014-01-26 22:15:00
4:35 PM,33.1,16.9,51,29.88,10.0,North,34.5,43.7,N/A,,Overcast,350,2014-01-26 22:35:00
4:55 PM,32.2,16.0,51,29.91,10.0,NNW,31.1,43.7,N/A,,Overcast,340,2014-01-26 22:55:00
5:15 PM,31.1,10.6,42,29.93,10.0,NNW,35.7,49.5,N/A,,Overcast,340,2014-01-26 23:15:00
5:35 PM,29.3,7.5,40,29.97,10.0,North,40.3,44.9,N/A,,Overcast,350,2014-01-26 23:35:00
5:55 PM,26.6,2.5,36,29.99,10.0,North,40.3,51.8,N/A,,Overcast,350,2014-01-26 23:55:00
6:15 PM,25.7,1.8,36,30.00,10.0,North,28.8,47.2,N/A,,Overcast,350,2014-01-27 00:15:00
6:35 PM,24.6,2.8,39,30.02,10.0,North,36.8,48.3,N/A,,Mostly Cloudy,350,2014-01-27 00:35:00
6:55 PM,23.5,3.9,43,30.06,10.0,NNW,39.1,48.3,N/A,,Overcast,340,2014-01-27 00:55:00
7:15 PM,21.9,-0.6,38,30.09,10.0,NNW,38.0,50.6,N/A,,Overcast,330,2014-01-27 01:15:00
7:35 PM,20.8,3.0,46,30.12,10.0,North,38.0,48.3,N/A,,Overcast,350,2014-01-27 01:35:00
7:55 PM,19.2,-6.0,33,30.14,10.0,NNW,40.3,50.6,N/A,,Overcast,340,2014-01-27 01:55:00
8:15 PM,18.3,-3.5,38,30.16,10.0,North,35.7,48.3,N/A,,Overcast,350,2014-01-27 02:15:00
8:35 PM,17.2,-7.6,33,30.18,10.0,North,39.1,47.2,N/A,,Scattered Clouds,350,2014-01-27 02:35:00
8:55 PM,16.2,-8.7,33,30.19,10.0,North,31.1,39.1,N/A,,Scattered Clouds,350,2014-01-27 02:55:00
9:15 PM,14.7,-8.3,35,30.22,10.0,North,23.0,28.8,N/A,,Clear,350,2014-01-27 03:15:00
9:35 PM,13.8,-8.0,38,30.22,10.0,North,26.5,34.5,N/A,,Clear,350,2014-01-27 03:35:00
9:55 PM,13.1,-6.9,41,30.23,10.0,North,31.1,35.7,N/A,,Clear,350,2014-01-27 03:55:00
10:15 PM,12.4,-5.4,45,30.22,10.0,North,23.0,31.1,N/A,,Clear,350,2014-01-27 04:15:00
10:35 PM,11.8,-7.2,42,30.25,10.0,North,18.4,38.0,N/A,,Clear,350,2014-01-27 04:35:00
10:55 PM,11.1,-9.6,39,30.26,10.0,NNW,27.6,38.0,N/A,,Clear,340,2014-01-27 04:55:00
11:15 PM,10.4,-9.4,41,30.28,10.0,North,21.9,32.2,N/A,,Clear,350,2014-01-27 05:15:00
11:35 PM,9.9,-9.4,42,30.29,10.0,North,21.9,27.6,N/A,,Clear,350,2014-01-27 05:35:00
11:55 PM,10.0,-11.2,38,30.30,10.0,NNW,29.9,38.0,N/A,,Clear,340,2014-01-27 05:55:00